Tracking 35331 objects as of 16-Sep-2026
HD Live streaming from Space Station
objects crossing your sky now

STARLINK-2110

Track STARLINK-2110 now!
10-day predictions
STARLINK-2110 is classified as:


NORAD ID: 47389
Int'l Code: 2021-005AS
Launch date: January 20, 2021
Source: United States (US)
Launch site: AIR FORCE EASTERN TEST RANGE (AFETR)
Your satellite tracking list
Your tracking list is empty




NASA's NSSDC Master Catalog

Two Line Element Set (TLE):
1 47389U 21005AS  26258.35415520  .00042704  00000-0  11239-2 0  9992
2 47389  53.1547 232.0986 0004719  45.6600 314.4790 15.38150735312484
Source of the keplerian elements: AFSPC